Flag for Angola Weather past 2 weeks in Lucapa, Angola

Now
79 °F

Thunderstorms. Passing clouds.


Feels Like: 82 °F
Forecast: 72 / 93 °F
Wind: 2 mph from North

Location: Brazzaville / Maya-Maya

Current Time: Jan 31, 2015 at 1:06:58 AM

Latest Report: Jan 31, 2015 at 12:00 AM


Visibility: 5 mi

Pressure: 29.89 "Hg

Humidity: 84%

Dew point: 73 °F

Location of LucapaLocation

Historic Weather in Lucapa — Graph

°F

Lucapa temperature yesterday

Maximum temperature yesterday: 91 °F (at 2:00 PM)
Minimum temperature yesterday: 73 °F (at 1:00 AM)
Average temperature yesterday: 81 °F

Past Weeks' High & Low Weather Summary

 TemperatureHumidityPressure
High91 °F (Jan 20, 3:00 PM)100% (Jan 29, 5:00 AM)30.04 "Hg (Jan 29, 5:00 AM)
Low68 °F (Jan 17, 3:00 AM)52% (Jan 20, 3:00 PM)29.77 "Hg (Jan 20, 5:00 PM)
Average79 °F79%29.91 "Hg
* Reported Jan 15 11:00 PM — Jan 30 11:00 PM, Lucapa, Weather by CustomWeather, © 2014

Note: Actual official high and low records may vary slightly from our data, if they occured in-between our weather recording intervals... More about our weather records

Advertising

Lucapa weather history for previous 24 hours

 ConditionsComfort  
Time TempWeatherWind HumidityBarometerVisibility
11:00 PM
Jan 30
81 °FThunderstorms. Passing clouds.2 mph79%29.89 "Hg5 mi
10:00 PM82 °FPassing clouds.6 mph74%29.89 "Hg5 mi
9:00 PM82 °FPassing clouds.3 mph74%29.89 "Hg5 mi
8:00 PM84 °FPassing clouds.5 mph66%29.86 "HgN/A
7:00 PM84 °FPassing clouds.6 mph70%29.83 "HgN/A
6:00 PM86 °FPassing clouds.3 mph66%29.80 "HgN/A
5:00 PM88 °FPassing clouds.6 mph59%29.80 "HgN/A
4:00 PM90 °FPassing clouds.8 mph55%29.80 "HgN/A
3:00 PM90 °FScattered clouds.7 mph59%29.83 "HgN/A
2:00 PM91 °FScattered clouds.6 mph52%29.86 "HgN/A
1:00 PM90 °FScattered clouds.6 mph55%29.89 "HgN/A
12:00 PM88 °FScattered clouds.7 mph62%29.92 "Hg5 mi
11:00 AM84 °FScattered clouds.6 mph66%29.95 "Hg5 mi
10:00 AM82 °FScattered clouds.5 mph70%29.98 "Hg5 mi
9:00 AM81 °FScattered clouds.2 mph74%29.98 "Hg5 mi
8:00 AM77 °FPassing clouds.No wind83%29.98 "Hg5 mi
7:00 AM73 °FPassing clouds.No wind94%29.92 "Hg5 mi
6:00 AM73 °FPassing clouds.1 mph89%29.92 "HgN/A
5:00 AM73 °FPassing clouds.3 mph89%29.92 "Hg6 mi
4:00 AM73 °FClear.2 mph89%29.92 "Hg6 mi
3:00 AM73 °FClear.No wind89%29.92 "Hg6 mi
2:00 AM73 °FClear.No wind89%29.89 "Hg6 mi
1:00 AM73 °FClear.3 mph94%29.92 "Hg5 mi
Weather by CustomWeather, © 2014

See weather overviewHow to use our weather pages